Retour au catalogue

COSMOS 1275 DEB

ActifPO
NORAD 12753·DEBRIS·🇷🇺 Russia

Lancé Jun 4, 1981 depuis Plesetsk Cosmodrome

Loading…

Prochains Passages (prochaines 24 heures)

TLE

FraisSource: Space-Track

Époque: Sep 13, 2026, 22:40 UTC

1 12753U 81053CW  26256.94491969  .00000540  00000-0  50559-3 0  9993
2 12753  82.8027  54.3443 0093336 143.2577 347.0988 13.78028727253298

Suivez COSMOS 1275 DEB en temps réel avec AllMySat

Download on the App Store